www.pogodaiklimat.ru

Погода и климат >> Архив погоды >> Непал >> Непалгандж


ПОГОДА в Непалгандже

  • Прогноз погоды в Непалгандже
  • Монитор погоды в Непалгандже

АРХИВ ПОГОДЫ в Непалгандже

Время (UTC), дата Ветер
(напр.,м/с)
 
Видим.   Явления Облачность Т
(С)
Тd
(С)
f
(%)
Тe
(С)
Тes
(С)
Комфортность P
(гПа)
Po
(гПа)
Тmin
(С)
Tmax
(С)
R
(мм)
R24
(мм)
S
(см)
03 14.07 штиль 0 6000 м {гроза, дождь} 9/4 300 м
[Sc Ac cuf]
+25.2 +24.7 97 +35 +39 очень
душно
998.0 980.4 +23.3 64
06 14.07 З 1 8000 м ясно +30.2 +25.8 77 +45 +70 опасность
перегрева
998.1 980.5
09 14.07 З 4 8000 м 3 балла +32.8 +26.7 70 +50 +57 опасность
перегрева
996.5 979.0
12 14.07 З 4 7000 м 9/5 600 м
[Sc diur, vesp Ac trans]
+32.4 +26.8 72 +50 +50 опасность
перегрева
995.1 977.6 +33.5
00 15.07 штиль 0 6000 м 3/0 2000 м
[Ac lent]
+27.0 +26.4 97 +41 +41 опасность
перегрева
995.7 978.2
03 15.07 С 1 6000 м 4/0 2000 м
[Ac trans]
+28.4 +25.8 86 +42 +51 опасность
перегрева
996.0 978.6 +26.5
06 15.07 С 3 8000 м 10/4 300 м
[Cu Sc As trans Cs]
+27.4 +23.8 81 +38 +43 очень
душно
997.8 980.4
09 15.07 З 2 8000 м 10/4 300 м
[Cu hum Ac lent]
+29.5 +25.6 80 +44 +46 опасность
перегрева
997.8 980.4
12 15.07 Ю 2 8000 м 3/3 300 м
[Cu hum]
+30.0 +25.8 78 +45 +46 опасность
перегрева
996.4 979.0 +34.6
00 16.07 штиль 0 7000 м 10/5 300 м
[Sc Ac cast]
+25.0 +24.7 98 +35 +35 очень
душно
999.9 981.6
03 16.07 штиль 0 6000 м 10/5 300 м
[Sc Ac As]
+26.0 +24.6 92 +37 +39 очень
душно
1000.9 983.5 +24.6
09 16.07 штиль 0 7000 м 9/5 600 м
[Cu Sc As trans]
+30.2 +26.1 79 +46 +51 опасность
перегрева
1001.3 983.8
12 16.07 штиль 0 8000 м 5/3 600 м
[Cu hum Ac cast]
+31.6 +26.8 76 +49 +50 опасность
перегрева
999.8 982.3 +31.6
00 17.07 З 3 6000 м 10/4 300 м
[Sc As trans]
+26.0 +24.9 94 +37 +37 очень
душно
1000.9 983.4
03 17.07 Ю 2 7000 м 8/4 300 м
[Cu med, cong Ac und]
+28.0 +24.3 80 +39 +42 очень
душно
1001.4 983.9 +26.0
06 17.07 штиль 0 8000 м 5/3 600 м
[Cu med, cong Ac lent]
+31.4 +25.7 72 +46 +62 опасность
перегрева
1002.3 984.8
09 17.07 З 3 8000 м 5/3 600 м
[Cu hum Ac cast]
+29.0 +26.8 88 +45 +52 опасность
перегрева
1000.4 982.9
12 17.07 З 3 8000 м 3/3 600 м
[Cu hum]
+33.0 +25.8 66 +48 +49 опасность
перегрева
998.9 981.5 +35.0
00 18.07 штиль 0 10 км 4/0 2000 м
[Ac As]
+26.4 +25.1 93 +38 +38 очень
душно
1000.7 983.2
03 18.07 СВ 2 10 км ясно +30.0 +27.0 84 +47 +58 опасность
перегрева
1001.2 983.8 +26.0
06 18.07 штиль 0 10 км 3/3
[Cu hum]
+33.4 +25.8 65 +49 +69 опасность
перегрева
1001.2 983.8
09 18.07 С 2 8000 м 3/3 600 м
[Cu hum]
+35.4 +26.5 60 +52 +63 опасность
перегрева
999.7 982.3
12 18.07 З 2 8000 м 3/3 600 м
[Cu hum]
+35.2 +26.5 61 +52 +53 опасность
перегрева
997.7 980.3 +35.6
00 19.07 штиль 0 6000 м ясно +27.5 +24.7 85 +39 +39 очень
душно
1000.6 983.2
03 19.07 штиль 0 8000 м ясно +32.0 +27.9 79 +52 +65 опасность
перегрева
1001.9 984.6 +27.3
06 19.07 штиль 0 8000 м ясно +35.4 +26.8 61 +53 +82 опасность
перегрева
1001.5 984.2
09 19.07 З 2 8000 м 3/3
[Cu hum]
+36.8 +26.6 56 +54 +65 опасность
перегрева
999.5 982.1
12 19.07 З 1 8000 м 3/3 600 м
[Cu hum]
+36.6 +28.7 64 +59 +61 опасность
перегрева
998.5 981.2 +37.5
00 20.07 штиль 0 6000 м 4/3 300 м
[Sc diur, vesp Ci fib]
+27.8 +26.9 95 +44 +44 опасность
перегрева
1000.6 983.3
03 20.07 штиль 0 7000 м 4/3 300 м
[Cu hum Cs]
+32.0 +26.5 73 +49 +58 опасность
перегрева
1002.9 985.6 +27.4
06 20.07 З 1 8000 м 4/3 600 м
[Cu hum Ac cast]
+32.8 +27.8 75 +53 +69 опасность
перегрева
1002.6 985.3
09 20.07 З 1 8000 м 3/3 600 м
[Cu hum]
+36.6 +29.0 65 +60 +72 опасность
перегрева
1000.5 983.2

 

Местоположение метеостанции Непалгандж (Непал): широта 28.10 долгота 81.67 высота над уровнем моря 165 м.

В архиве по умолчанию представлена погода в Непалгандже за последнюю неделю. Архивные данные за месяц целиком и за предыдущие месяцы, начиная с января 2011 года, Вы можете получить, выбрав интересующий диапазон дат из раскрывающегося списка и нажав кнопку "Ввод!".


*Определитесь, кто Вы:
робот инопланетянин человек

Внимание! Время в таблицах - всемирное. Для получения местного времени необходимо прибавить поправку, которая равна 5.5 ч.

Смотрите также архив погоды в соседних городах и на ближайших метеорологических станциях:

Погода в Суркхете (Непал) (56 км)
Погода в Бахрайче (Уттар-Прадеш, Индия) (59 км)
Погода в Гхорахи (Непал) (82 км)
Погода в Дхангадхи (Непал) (134 км)
Погода в Джумле (Непал) (140 км)
Погода в Дипаял-Силгадхи (Непал) (146 км)
Погода в Лакхнау (Уттар-Прадеш, Индия) (169 км)
Погода в Даделдхуре (Непал) (171 км)
Погода в Сиддхартханагаре (Непал) (187 км)
Погода в Султанпуре (Уттар-Прадеш, Индия) (207 км)

Пояснения к столбцам:

Ветер - указаны скорость ветра в м/с - средняя за 10 мин, порывы в срок и между сроками (в фигурных скобках) и направление, откуда дует ветер: С - северный, СВ - северо-восточный, В - восточный, ЮВ - юго-восточный, Ю - южный, ЮЗ - юго-западный, З - западный, СЗ - северо-западный.
Видимость - горизонтальная дальность видимости в метрах или километрах. При видимости от 1 до 10 км при отсутствии осадков обычно наблюдается дымка, при ухудшении видимости до 1 км и менее - туман. В сухую погоду видимость может ухудшаться дымом, пылью или мглою.
Явления - указаны атмосферные явления, наблюдавшиеся в срок или в последний час перед сроком; фигурными скобками обозначены явления, наблюдавшиеся между сроками (за 1-3 часа до срока); квадратными скобками обозначены град или гололедные отложения с указанием их диаметра в мм.
Облачность - указаны через наклонную черту общая и нижняя облачность в баллах и высота нижней границы облаков в метрах; квадратными скобками обозначены формы облаков: Ci - перистые, Cs - перисто-слоистые, Cc - перисто-кучевые, Ac - высококучевые, As - высокослоистые, Sc - слоисто-кучевые, Ns - слоисто-дождевые, Cu - кучевые, Cb - кучево-дождевые. Подробнее классификацию облаков см. в Атласе облаков (PDF).
T - Температура воздуха - температура, измеренная на высоте 2 м над землей.
Td - Температура точки росы - температура, при понижении до которой содержащийся в воздухе водяной пар достигнет насыщения.
f - Относительная влажность воздуха - влажноcть воздуха, измеренная на высоте 2 м над землей.
Te - Эффективная температура - температура, которую ощущает одетый по сезону человек в тени. Характеристика душности погоды. При расчете учитывается влияние влажности воздуха и скорости ветра на теплоощущения человека.
Tes - Эффективная температура на солнце - температура, которую ощущает человек, с поправкой на солнечный нагрев. Характеристика знойности погоды. Зависит от высоты солнца над горизонтом, облачности и скорости ветра. Ночью, в пасмурную погоду, а также при ветре 12 м/с и более поправка равна нулю.
P - Атмосферное давление - приведенное к уровню моря атмосферное давление.
Po - Атмосферное давление - измеренное на уровне метеостанции атмосферное давление.
Tmin - Минимальная температура - минимум температуры воздуха на высоте 2 м над землей.
Tmax - Максимальная температура - максимум температуры воздуха на высоте 2 м над землей.
R - Количество осадков - Количество выпавших осадков за период времени, мм. При наведении курсора мыши на число - период времени, за который выпало указанное количество осадков.
R24 - Количество осадков - Количество выпавших осадков за 24 часа, мм.
S - Снежный покров - Высота снежного покрова, см. При наведении курсора мыши на число - состояние снежного покрова и степень покрытия местности в баллах.